Location: Unspecified
(0.0000°N, 0.0000°E)
Time: 15:30:22
(UTC+02:00)

Cosmos 2237 Rocket - Visible Passes

Search period start: 29 April 2017 00:00
Search period end: 09 May 2017 00:00
Orbit: 834 x 851 km, 71.0° (Epoch: 27 April)

Date Brightness Start Highest point End Pass type
(mag) Time Alt. Az. Time Alt. Az. Time Alt. Az.
02 May4.521:48:17NNE21:48:17NNE21:35:22Svisible
03 May 2.4 21:20:46 10° S 21:26:10 46° ESE 21:31:34 10° NNE visible
03 May 5.0 23:07:57 10° W 23:09:57 12° WNW 23:11:58 10° NW visible
04 May 2.5 21:05:59 10° S 21:11:20 43° ESE 21:16:41 10° NE visible
04 May 5.0 22:52:40 10° W 22:55:06 13° WNW 22:57:34 10° NW visible
05 May 2.6 20:51:12 10° S 20:56:30 40° ESE 21:01:46 10° NE visible
05 May 5.0 22:37:28 10° WSW 22:40:16 14° WNW 22:43:05 10° NW visible
06 May 2.7 20:36:27 10° S 20:41:40 37° ESE 20:46:51 10° NE visible
06 May 5.0 22:22:20 10° WSW 22:25:26 15° WNW 22:28:33 10° NW visible
07 May 2.8 20:21:42 10° S 20:26:49 35° ESE 20:31:56 10° NE visible
07 May 5.0 22:07:14 10° WSW 22:10:36 16° WNW 22:13:58 10° NW visible
08 May 4.9 21:52:09 10° WSW 21:55:46 17° WNW 21:59:22 10° NW visible
